TimeMDT,TemperatureF,Dew PointF,Humidity,Sea Level PressureIn,VisibilityMPH,Wind Direction,Wind SpeedMPH,Gust SpeedMPH,PrecipitationIn,Events,Conditions,WindDirDegrees,DateUTC
12:53 AM,66.9,46.0,47,29.62,10.0,South,11.5,-,N/A,,Clear,170,2013-09-22 06:53:00
1:53 AM,66.0,46.9,50,29.61,10.0,SSE,16.1,23.0,N/A,,Clear,160,2013-09-22 07:53:00
2:53 AM,66.0,46.9,50,29.59,10.0,SSE,15.0,-,N/A,,Partly Cloudy,150,2013-09-22 08:53:00
3:53 AM,64.9,46.9,52,29.59,10.0,SSE,15.0,-,N/A,,Partly Cloudy,160,2013-09-22 09:53:00
4:53 AM,62.1,48.0,60,29.60,10.0,ESE,11.5,-,N/A,,Scattered Clouds,120,2013-09-22 10:53:00
5:53 AM,60.1,48.9,67,29.60,10.0,ESE,8.1,-,N/A,,Clear,110,2013-09-22 11:53:00
6:53 AM,60.1,48.9,67,29.62,10.0,ESE,10.4,-,N/A,,Partly Cloudy,120,2013-09-22 12:53:00
7:53 AM,64.0,48.9,58,29.61,10.0,SSE,16.1,-,N/A,,Mostly Cloudy,160,2013-09-22 13:53:00
8:53 AM,66.9,48.9,52,29.60,10.0,South,17.3,25.3,N/A,,Scattered Clouds,180,2013-09-22 14:53:00
9:53 AM,66.0,50.0,56,29.61,10.0,South,17.3,-,N/A,,Partly Cloudy,180,2013-09-22 15:53:00
10:53 AM,64.0,51.1,63,29.60,10.0,ESE,12.7,19.6,0.00,,Partly Cloudy,120,2013-09-22 16:53:00
11:53 AM,64.9,48.9,56,29.57,10.0,SE,28.8,36.8,N/A,,Mostly Cloudy,140,2013-09-22 17:53:00
12:53 PM,68.0,45.0,43,29.51,10.0,SE,27.6,36.8,N/A,,Mostly Cloudy,140,2013-09-22 18:53:00
1:53 PM,70.0,46.9,44,29.51,10.0,WSW,9.2,16.1,N/A,,Overcast,250,2013-09-22 19:53:00
2:16 PM,66.2,44.6,46,29.71,10.0,SSW,23.0,33.4,0.00,Rain,Light Rain,200,2013-09-22 20:16:00
2:53 PM,60.1,48.0,64,29.60,10.0,WNW,16.1,34.5,0.00,Rain,Light Rain,290,2013-09-22 20:53:00
3:03 PM,57.2,50.0,77,29.76,10.0,NW,9.2,-,0.00,Rain,Light Rain,320,2013-09-22 21:03:00
3:46 PM,55.4,51.8,88,29.77,3.0,West,10.4,-,0.10,Rain-Thunderstorm,Thunderstorms and Rain,270,2013-09-22 21:46:00
3:53 PM,54.0,53.1,97,29.63,2.0,West,17.3,23.0,0.14,Rain-Thunderstorm,Heavy Thunderstorms and Rain,270,2013-09-22 21:53:00
4:14 PM,51.8,50.0,94,29.79,2.0,NNW,23.0,31.1,0.14,Rain-Thunderstorm,Heavy Thunderstorms and Rain,330,2013-09-22 22:14:00
4:53 PM,52.0,48.0,86,29.67,3.0,North,9.2,-,0.30,Rain,Heavy Rain,10,2013-09-22 22:53:00
5:53 PM,53.1,48.0,83,29.63,10.0,East,6.9,-,0.08,,Mostly Cloudy,90,2013-09-22 23:53:00
6:53 PM,51.1,46.0,83,29.62,10.0,East,18.4,31.1,N/A,,Overcast,80,2013-09-23 00:53:00
7:53 PM,51.1,45.0,80,29.64,10.0,NNE,3.5,-,N/A,,Clear,20,2013-09-23 01:53:00
8:53 PM,52.0,46.9,83,29.66,10.0,ESE,8.1,-,N/A,,Overcast,120,2013-09-23 02:53:00
9:53 PM,50.0,48.0,93,29.67,10.0,SSE,11.5,-,0.01,Rain,Light Rain,150,2013-09-23 03:53:00
10:53 PM,50.0,46.9,89,29.70,10.0,ESE,8.1,-,0.00,,Overcast,120,2013-09-23 04:53:00
11:53 PM,50.0,46.0,86,29.71,10.0,ESE,5.8,-,0.00,,Overcast,120,2013-09-23 05:53:00